Regional Weather Roundup
Issued by NWS Goodland, KS

Home | Current Version | Previous Version | Text Only | Print | Product List | Glossary On
Versions: 1 2 3 4 5 6 7 8 9 10 11 12 13 14 15 16 17 18 19 20 21 22 23 24 25 26 27 28 29 30 31 32 33 34 35 36 37 38 39 40 41 42 43 44 45 46 47 48 49 50
000
ASUS43 KGLD 232108
RWRGLD

GOODLAND FORECAST AREA HOURLY WEATHER ROUNDUP
NATIONAL WEATHER SERVICE GOODLAND KS
300 PM MDT SAT JUL 23 2016

...OFFICIAL OBSERVATIONS...

CITY           SKY/WX    TMP DP  RH WIND       PRES   REMARKS
GOODLAND KS    SUNNY    100  52  19 N10       29.94F
HILL CITY KS   SUNNY    100  63  29 W10       29.82F HX 102
IMPERIAL NEB   SUNNY     95  63  34 VRB6      29.91F
MCCOOK NEB     CLOUDY    93  71  48 SE6       29.86F HX 100
AKRON CO       SUNNY     94  45  18 NE7       30.03F
BURLINGTON CO  SUNNY     99  47  17 N13       29.99F
LIMON CO       SUNNY     95  36  12 N8        30.08F
$$

...UNOFFICIAL OBSERVATIONS...

CITY           SKY/WX    TMP DP  RH WIND       PRES   REMARKS
COLBY KS       SUNNY    100  63  28 N9        29.91F HX 102
LENORA KS        N/A     98  32  10 MISG        N/A
NORTON KS      SUNNY     99  52  20 CALM      29.84S
$$




USA.gov is the U.S. government's official web portal to all federal, state and local government web resources and services.